#timestamp,LO_Frequency,Hit,StdDev 
1503302415.6,286046995.0,N,1.9
1503302435.5,286046995.8,N,1.9
1503302455.3,286046995.6,N,1.9
1503302475.1,286046993.3,Y,0.0
1503302495.9,286046995.2,P,1.6
1503302515.7,286046996.1,N,1.3
1503302535.6,286046995.6,P,1.2
1503302555.4,286046996.0,Y,0.0
1503302575.2,286682704.6,P,317854.2
1503302595.1,286046999.5,N,299675.0
1503302596.0,286046999.5,N,275268.9
1503302615.8,286046998.8,N,254282.5
1503302635.7,286046999.5,N,236913.6
1503302655.5,286046998.6,N,222450.7
1503302675.3,286046998.2,N,210240.0
1503302695.2,286046999.0,N,199783.1
1503302715.0,286046999.6,N,190711.8
1503302715.9,286046999.6,N,182752.6
1503302735.8,286046996.8,N,175699.9
1503302755.6,286046997.0,N,169396.2
1503302775.4,286046996.8,N,163719.4
1503302795.3,286046996.8,N,158573.0
1503302815.1,286046997.4,N,153880.0
1503302835.9,286046997.0,N,149578.0
1503302855.7,286046997.6,N,145615.8
1503302875.5,286046997.6,N,141951.3
1503302895.4,286046997.8,N,138549.0
1503302915.2,286046995.8,N,135379.4
1503302935.1,286046995.5,N,132417.0
1503302936.0,286046995.5,N,129640.4
1503302955.8,286046997.8,N,127031.0
1503302975.6,286046997.7,N,124572.6
1503302995.5,286046995.3,N,122251.3
1503303015.3,286046997.9,N,120054.9
1503303035.2,286046998.0,N,117972.5
1503303055.9,286046995.1,N,115994.7
1503303075.7,286046993.8,N,114112.9
1503303095.6,286046995.9,N,114112.9
1503303115.4,286046993.8,N,1.6
1503303135.2,286046996.1,N,1.6
1503303155.1,286046993.3,Y,0.0
1503303156.0,286046993.3,P,1.9
1503303175.8,286046996.6,N,1.7
1503303195.7,286046999.5,N,2.2
1503303215.5,286046996.5,N,2.0
1503303235.4,286046997.8,N,1.9
1503303255.2,286046994.9,N,1.9
1503303275.0,286046995.2,N,1.8
1503303275.9,286046995.2,N,1.7
1503303295.8,286046995.5,N,1.7
1503303315.6,286046995.8,N,1.6
1503303335.5,286046996.1,N,1.5
1503303355.3,286046995.9,N,1.5
1503303375.1,286046995.5,Y,0.0
1503303395.9,286046998.6,P,1.2
1503303415.7,286046998.3,N,1.1
1503303435.6,286046999.3,N,1.2
1503303455.4,286047001.1,N,1.6
1503303475.2,286046998.4,N,1.5
1503303495.1,286046998.7,N,1.4
1503303496.0,286046998.7,N,1.3
1503303515.8,286046999.1,N,1.2
1503303535.7,286047001.2,N,1.4
1503303555.5,286047001.1,N,1.4
1503303575.3,286046998.6,N,1.4
1503303595.2,286046998.7,N,1.3
1503303615.0,286046998.5,N,1.3
1503303615.9,286046998.5,N,1.3
1503303635.8,286046998.9,N,1.2
1503303655.6,286047000.9,N,1.3
1503303675.4,286047001.2,N,1.3
1503303695.3,286046998.2,N,1.3
1503303715.1,286046998.4,N,1.3
1503303735.9,286047000.8,N,1.3
1503303755.7,286046998.5,N,1.3
1503303775.5,286047000.7,N,1.3
1503303795.4,286047001.2,N,1.3
1503303815.2,286046998.4,N,1.3
1503303835.0,286046998.6,N,1.3
1503303836.0,286046998.6,N,1.3
1503303855.8,286047001.2,N,1.3
1503303875.6,286046998.1,N,1.3
1503303895.5,286047001.1,N,1.3
1503303915.3,286046998.5,N,1.2
1503303935.1,286047000.8,N,1.2
1503303955.9,286046998.4,N,1.2
1503303975.7,286046996.9,N,1.3
1503303995.6,286046999.5,N,1.3
1503304015.4,286046999.3,N,1.2
1503304035.2,286046999.1,N,1.2
1503304055.1,286046999.4,N,1.2
1503304056.0,286046999.4,N,1.2
1503304075.8,286046998.9,N,1.2
1503304095.7,286046999.0,N,1.1
1503304115.5,286046998.3,N,1.1
1503304135.3,286046999.4,N,1.1
1503304155.2,286046998.8,N,1.1
1503304175.9,286046998.2,N,1.1
1503304195.7,286046998.4,N,1.2
1503304215.6,286046999.0,N,1.1
1503304235.4,286046998.8,N,1.1
1503304255.3,286046998.4,N,1.0
1503304275.1,286046999.0,N,1.0
1503304295.8,286046998.4,N,1.0
1503304315.7,286046998.5,N,1.0
1503304335.5,286047001.1,N,1.0
1503304355.4,286046998.1,N,1.0
1503304375.2,286047001.1,N,1.0
1503304395.0,286046998.4,N,1.0
1503304395.9,286046998.4,N,1.0
1503304415.8,286047000.6,N,1.0
1503304435.6,286047000.6,N,1.0
1503304455.4,286047002.2,N,1.1
1503304475.3,286047002.7,N,1.3
1503304495.1,286046999.9,N,1.2
1503304515.9,286047002.8,N,1.4
1503304535.7,286047000.8,N,1.3
1503304555.5,286046999.8,N,1.3
1503304575.4,286047000.2,N,1.3
1503304595.2,286047002.3,N,1.4
1503304615.1,286047002.7,N,1.5
1503304616.0,286047002.7,N,1.6
1503304635.8,286047002.3,N,1.6
1503304655.6,286047002.8,N,1.7
1503304675.5,286047002.3,N,1.7
1503304695.3,286047002.8,N,1.7
1503304715.2,286047001.4,N,1.7
1503304735.9,286047002.5,N,1.7
1503304755.7,286047001.9,N,1.7
1503304775.6,286047003.9,N,1.7
1503304795.4,286047003.5,N,1.8
1503304815.2,286047003.5,N,1.7
1503304835.1,286047003.5,N,1.7
1503304836.0,286047003.5,N,1.7
1503304855.8,286047003.7,N,1.6
1503304875.7,286047003.5,N,1.6
1503304895.5,286047003.5,N,1.5
1503304915.3,286047004.2,N,1.6
1503304935.2,286047003.2,N,1.4
1503304955.0,286047003.0,N,1.2
1503304955.9,286047003.0,N,1.2
1503304975.8,286047003.2,N,1.1
1503304995.6,286047003.3,N,1.1
1503305015.4,286047005.0,Y,0.0
1503305035.3,286047001.3,P,0.7
1503305055.1,286047001.6,N,0.6
1503305075.8,286047001.9,P,0.5
1503305095.7,286047001.8,Y,0.0
1503305115.5,286047001.2,P,0.3
1503305135.4,286047000.9,N,0.4
1503305155.2,286047000.6,N,0.5
1503305175.0,286047000.7,N,0.5
1503305176.0,286047000.7,N,0.4
1503305195.8,286046999.8,N,0.6
1503305215.6,286046999.9,N,0.6
1503305235.5,286047000.7,N,0.6
1503305255.3,286047002.5,Y,0.0
1503305275.1,286047002.4,P,0.8
1503305295.9,286047000.1,N,1.0
1503305315.7,286047002.3,N,1.0
1503305335.6,286047001.6,N,0.9
1503305355.4,286047002.0,N,0.8
1503305375.2,286047002.2,N,0.8
1503305395.1,286047001.9,N,0.8
1503305396.0,286047001.9,N,0.7
1503305415.8,286047001.4,N,0.7
1503305435.7,286047004.2,Y,0.0
1503305455.5,286047000.1,P,0.8
1503305475.3,286047002.5,P,1.0
1503305495.2,286047002.0,N,0.9
1503305515.0,286046999.7,N,1.1
1503305515.9,286046999.7,N,1.1
1503305535.8,286047002.7,N,1.2
1503305555.6,286047002.6,N,1.2
1503305575.4,286047002.5,N,1.2
1503305595.3,286047001.7,N,1.2
1503305615.1,286047001.8,N,1.1
1503305635.8,286047004.4,Y,0.0
1503305655.7,286047000.0,P,0.8
1503305675.5,286047000.3,N,0.7
1503305695.4,286047002.6,P,1.0
1503305715.2,286047000.2,N,1.0
1503305735.0,286047002.6,N,1.1
1503305735.9,286047002.6,N,1.1
1503305755.8,286047001.7,N,1.1
1503305775.6,286047002.4,N,1.0
1503305795.5,286047002.6,N,1.0
1503305815.3,286047001.5,N,1.0
1503305835.1,286047002.3,N,1.0
1503305855.9,286047002.4,N,0.9
1503305875.7,286047002.4,N,0.9
1503305895.5,286047002.6,N,0.9
1503305915.4,286047002.0,N,0.9
1503305935.2,286047002.4,N,0.9
1503305955.1,286047002.5,N,0.9
1503305956.0,286047002.5,N,0.8
1503305975.8,286047004.4,Y,0.0
1503305995.7,286047000.8,P,0.6
